| time (UTC) | temp F | wind direction | speed MPH | gust MPH | rain 1hr in | rain 24hr in | rain mn in | humidity % | barometer mb |
| 20260510033502 | 45 | 0 | 0.0 | 0.0 | 0.00 | 0.41 | 0.40 | 90 | 1010.2 |
| 20260510033002 | 45 | 0 | 0.0 | 0.0 | 0.00 | 0.41 | 0.40 | 90 | 1010.1 |
| 20260510032503 | 45 | 0 | 0.0 | 0.0 | 0.00 | 0.41 | 0.40 | 90 | 1010.2 |
| 20260510032003 | 45 | 0 | 0.0 | 0.0 | 0.00 | 0.41 | 0.40 | 90 | 1010.4 |
| 20260510031503 | 45 | 0 | 0.0 | 0.0 | 0.00 | 0.41 | 0.40 | 90 | 1010.1 |
| 20260510031002 | 46 | 118 | 0.0 | 1.0 | 0.00 | 0.41 | 0.40 | 89 | 1010.4 |
| 20260510030523 | 46 | 110 | 0.0 | 2.0 | 0.00 | 0.41 | 0.40 | 89 | 1010.2 |
| 20260510030002 | 46 | 128 | 0.0 | 2.0 | 0.00 | 0.41 | 0.40 | 89 | 1010.2 |
| 20260510025503 | 46 | 216 | 0.0 | 2.0 | 0.00 | 0.41 | 0.40 | 89 | 1010.2 |
| 20260510025002 | 47 | 130 | 0.0 | 2.0 | 0.00 | 0.41 | 0.40 | 89 | 1010.1 |
| 20260510024503 | 47 | 63 | 0.0 | 2.0 | 0.00 | 0.41 | 0.40 | 89 | 1010.2 |
| 20260510024003 | 47 | 55 | 0.0 | 1.0 | 0.00 | 0.41 | 0.40 | 89 | 1010.3 |
| 20260510023503 | 47 | 53 | 0.0 | 1.0 | 0.00 | 0.41 | 0.40 | 89 | 1010.2 |
| 20260510023023 | 47 | 90 | 0.0 | 1.0 | 0.00 | 0.41 | 0.40 | 89 | 1010.3 |
| 20260510022503 | 48 | 136 | 0.0 | 1.0 | 0.00 | 0.41 | 0.40 | 89 | 1010.3 |
| 20260510022002 | 48 | 163 | 0.0 | 2.0 | 0.00 | 0.41 | 0.40 | 89 | 1010.3 |
| 20260510021503 | 48 | 156 | 0.0 | 2.0 | 0.00 | 0.41 | 0.40 | 89 | 1010.3 |
| 20260510021002 | 48 | 127 | 1.0 | 3.0 | 0.00 | 0.41 | 0.40 | 89 | 1010.3 |
| 20260510020524 | 48 | 119 | 1.0 | 3.0 | 0.00 | 0.41 | 0.40 | 90 | 1010.3 |
| 20260510020002 | 48 | 133 | 1.0 | 4.0 | 0.00 | 0.41 | 0.40 | 89 | 1010.2 |
| 20260510015503 | 47 | 133 | 1.0 | 4.0 | 0.00 | 0.41 | 0.40 | 89 | 1010.2 |
| 20260510015023 | 47 | 120 | 0.0 | 2.0 | 0.00 | 0.41 | 0.40 | 88 | 1010.4 |
| 20260510014523 | 47 | 127 | 0.0 | 1.0 | 0.00 | 0.41 | 0.40 | 88 | 1010.1 |
| 20260510014002 | 48 | 118 | 0.0 | 1.0 | 0.00 | 0.41 | 0.40 | 88 | 1010.1 |
| 20260510013502 | 48 | 99 | 0.0 | 2.0 | 0.00 | 0.41 | 0.40 | 88 | 1010.1 |
| 20260510013023 | 48 | 73 | 0.0 | 2.0 | 0.00 | 0.41 | 0.40 | 88 | 1010.1 |
| 20260510012503 | 48 | 92 | 0.0 | 2.0 | 0.00 | 0.41 | 0.40 | 88 | 1010.0 |
| 20260510012002 | 48 | 118 | 0.0 | 2.0 | 0.00 | 0.41 | 0.40 | 88 | 1009.9 |
| 20260510011503 | 48 | 135 | 1.0 | 2.0 | 0.00 | 0.41 | 0.40 | 87 | 1010.0 |
| 20260510011003 | 48 | 130 | 1.0 | 2.0 | 0.00 | 0.41 | 0.40 | 87 | 1010.1 |
| 20260510010524 | 48 | 125 | 0.0 | 1.0 | 0.00 | 0.41 | 0.40 | 87 | 1010.1 |
| 20260510010003 | 49 | 136 | 0.0 | 1.0 | 0.00 | 0.41 | 0.40 | 86 | 1010.1 |
| 20260510005503 | 49 | 125 | 0.0 | 1.0 | 0.00 | 0.41 | 0.40 | 86 | 1009.7 |
| 20260510005003 | 49 | 199 | 0.0 | 1.0 | 0.00 | 0.41 | 0.40 | 86 | 1009.8 |
| 20260510004503 | 49 | 186 | 0.0 | 1.0 | 0.00 | 0.41 | 0.40 | 86 | 1009.6 |
| 20260510004003 | 49 | 181 | 0.0 | 1.0 | 0.00 | 0.41 | 0.40 | 86 | 1009.9 |
| 20260510003503 | 50 | 220 | 0.0 | 2.0 | 0.00 | 0.41 | 0.40 | 85 | 1009.8 |
| 20260510003003 | 50 | 213 | 0.0 | 2.0 | 0.00 | 0.41 | 0.40 | 85 | 1009.8 |
| 20260510002502 | 50 | 194 | 0.0 | 2.0 | 0.00 | 0.41 | 0.40 | 85 | 1009.7 |
| 20260510002003 | 51 | 199 | 0.0 | 3.0 | 0.00 | 0.41 | 0.40 | 85 | 1009.4 |
| 20260510001503 | 51 | 210 | 1.0 | 3.0 | 0.00 | 0.41 | 0.40 | 85 | 1009.7 |
| 20260510001003 | 51 | 214 | 1.0 | 3.0 | 0.00 | 0.41 | 0.40 | 85 | 1009.4 |
| 20260510000502 | 51 | 202 | 1.0 | 3.0 | 0.00 | 0.41 | 0.40 | 84 | 1009.2 |
| 20260510000003 | 51 | 166 | 1.0 | 3.0 | 0.00 | 0.41 | 0.40 | 84 | 1009.3 |
| 20260509235503 | 52 | 171 | 1.0 | 4.0 | 0.00 | 0.41 | 0.40 | 84 | 1009.3 |
| 20260509235003 | 52 | 185 | 2.0 | 6.0 | 0.00 | 0.41 | 0.40 | 84 | 1009.4 |
| 20260509234503 | 52 | 190 | 1.0 | 6.0 | 0.00 | 0.41 | 0.40 | 84 | 1009.1 |
| 20260509234003 | 52 | 206 | 1.0 | 7.0 | 0.00 | 0.41 | 0.40 | 83 | 1009.0 |
| 20260509233502 | 52 | 189 | 2.0 | 8.0 | 0.00 | 0.42 | 0.40 | 83 | 1009.0 |
| 20260509233024 | 53 | 193 | 2.0 | 8.0 | 0.00 | 0.42 | 0.40 | 83 | 1009.0 |
| 20260509232502 | 52 | 200 | 2.0 | 6.0 | 0.00 | 0.42 | 0.40 | 84 | 1009.1 |
| 20260509232003 | 53 | 195 | 2.0 | 6.0 | 0.00 | 0.42 | 0.40 | 83 | 1009.2 |
| 20260509231503 | 53 | 231 | 2.0 | 6.0 | 0.00 | 0.42 | 0.40 | 84 | 1008.8 |
| 20260509231003 | 53 | 230 | 2.0 | 6.0 | 0.00 | 0.42 | 0.40 | 84 | 1008.9 |
| 20260509230524 | 53 | 201 | 2.0 | 7.0 | 0.00 | 0.42 | 0.40 | 84 | 1009.0 |
| 20260509230003 | 53 | 186 | 2.0 | 7.0 | 0.00 | 0.42 | 0.40 | 84 | 1009.0 |
| 20260509225503 | 53 | 197 | 2.0 | 6.0 | 0.00 | 0.42 | 0.40 | 84 | 1009.0 |
| 20260509225003 | 53 | 197 | 2.0 | 6.0 | 0.00 | 0.42 | 0.40 | 84 | 1009.1 |
| 20260509224524 | 53 | 186 | 2.0 | 8.0 | 0.00 | 0.42 | 0.40 | 84 | 1008.8 |
| 20260509224003 | 53 | 192 | 3.0 | 8.0 | 0.00 | 0.42 | 0.40 | 84 | 1009.1 |
| 20260509223503 | 53 | 199 | 3.0 | 9.0 | 0.00 | 0.42 | 0.40 | 85 | 1009.2 |
| 20260509223003 | 53 | 216 | 2.0 | 9.0 | 0.00 | 0.42 | 0.40 | 85 | 1008.8 |
| 20260509222503 | 53 | 240 | 2.0 | 11.0 | 0.00 | 0.42 | 0.40 | 86 | 1009.0 |
| 20260509222003 | 53 | 244 | 2.0 | 11.0 | 0.00 | 0.42 | 0.40 | 86 | 1009.0 |
| 20260509221503 | 53 | 239 | 2.0 | 8.0 | 0.00 | 0.42 | 0.40 | 86 | 1009.1 |
| 20260509221003 | 53 | 259 | 2.0 | 10.0 | 0.00 | 0.42 | 0.40 | 87 | 1009.0 |
| 20260509220503 | 53 | 256 | 2.0 | 10.0 | 0.00 | 0.42 | 0.40 | 86 | 1009.0 |
| 20260509220003 | 53 | 271 | 2.0 | 9.0 | 0.00 | 0.42 | 0.40 | 87 | 1009.1 |
| 20260509215524 | 53 | 262 | 2.0 | 6.0 | 0.00 | 0.42 | 0.40 | 88 | 1009.2 |
| 20260509215003 | 53 | 231 | 2.0 | 10.0 | 0.00 | 0.42 | 0.40 | 88 | 1009.2 |
| 20260509214503 | 52 | 221 | 2.0 | 10.0 | 0.00 | 0.42 | 0.40 | 88 | 1009.3 |
| 20260509214002 | 52 | 218 | 2.0 | 10.0 | 0.00 | 0.42 | 0.40 | 88 | 1009.1 |
| 20260509213503 | 52 | 226 | 3.0 | 10.0 | 0.00 | 0.42 | 0.40 | 88 | 1009.3 |
| 20260509213024 | 51 | 229 | 2.0 | 10.0 | 0.00 | 0.42 | 0.40 | 88 | 1009.4 |
| 20260509212503 | 51 | 234 | 2.0 | 10.0 | 0.00 | 0.42 | 0.40 | 88 | 1009.5 |
| 20260509212003 | 51 | 228 | 2.0 | 11.0 | 0.00 | 0.42 | 0.40 | 89 | 1009.4 |
| 20260509211503 | 51 | 213 | 4.0 | 15.0 | 0.00 | 0.42 | 0.40 | 88 | 1009.3 |
| 20260509211003 | 51 | 228 | 4.0 | 15.0 | 0.00 | 0.42 | 0.40 | 88 | 1009.3 |
| 20260509210503 | 51 | 256 | 3.0 | 10.0 | 0.00 | 0.42 | 0.40 | 89 | 1009.3 |
| 20260509210024 | 51 | 243 | 3.0 | 10.0 | 0.00 | 0.42 | 0.40 | 90 | 1009.6 |
| 20260509205503 | 51 | 251 | 2.0 | 13.0 | 0.00 | 0.42 | 0.40 | 90 | 1009.2 |
| 20260509205003 | 50 | 253 | 3.0 | 13.0 | 0.00 | 0.42 | 0.40 | 90 | 1009.4 |
| 20260509204524 | 50 | 239 | 3.0 | 13.0 | 0.01 | 0.42 | 0.40 | 90 | 1009.5 |
| 20260509204003 | 50 | 229 | 3.0 | 10.0 | 0.01 | 0.42 | 0.40 | 90 | 1009.3 |
| 20260509203503 | 50 | 232 | 2.0 | 7.0 | 0.02 | 0.42 | 0.40 | 90 | 1009.3 |
| 20260509203003 | 50 | 232 | 2.0 | 7.0 | 0.02 | 0.42 | 0.40 | 90 | 1009.4 |
| 20260509202503 | 49 | 226 | 1.0 | 4.0 | 0.03 | 0.42 | 0.40 | 90 | 1009.3 |
| 20260509202003 | 49 | 248 | 0.0 | 2.0 | 0.03 | 0.42 | 0.40 | 90 | 1009.4 |
| 20260509201503 | 49 | 297 | 1.0 | 6.0 | 0.04 | 0.42 | 0.40 | 90 | 1009.6 |
| 20260509201024 | 49 | 274 | 1.0 | 6.0 | 0.04 | 0.42 | 0.40 | 90 | 1009.5 |
| 20260509200503 | 49 | 255 | 1.0 | 6.0 | 0.04 | 0.42 | 0.40 | 90 | 1009.6 |
| 20260509200003 | 49 | 254 | 1.0 | 6.0 | 0.04 | 0.42 | 0.40 | 90 | 1009.6 |
| 20260509195503 | 49 | 251 | 2.0 | 7.0 | 0.05 | 0.42 | 0.40 | 90 | 1009.7 |
| 20260509195003 | 49 | 253 | 2.0 | 7.0 | 0.06 | 0.41 | 0.40 | 90 | 1009.9 |
| 20260509194503 | 49 | 258 | 2.0 | 7.0 | 0.06 | 0.41 | 0.39 | 90 | 1009.9 |
| 20260509194003 | 49 | 256 | 3.0 | 15.0 | 0.07 | 0.41 | 0.39 | 90 | 1010.0 |
| 20260509193524 | 49 | 254 | 3.0 | 15.0 | 0.07 | 0.40 | 0.39 | 90 | 1010.1 |
| 20260509193003 | 49 | 248 | 2.0 | 10.0 | 0.07 | 0.40 | 0.38 | 90 | 1010.1 |
| 20260509192503 | 49 | 242 | 3.0 | 11.0 | 0.07 | 0.39 | 0.37 | 90 | 1010.2 |
| 20260509192003 | 49 | 241 | 4.0 | 15.0 | 0.07 | 0.39 | 0.37 | 90 | 1010.4 |
| 20260509191503 | 48 | 238 | 3.0 | 15.0 | 0.07 | 0.38 | 0.37 | 90 | 1010.3 |
| 20260509191003 | 48 | 234 | 2.0 | 7.0 | 0.08 | 0.38 | 0.37 | 90 | 1010.3 |
| 20260509190503 | 48 | 252 | 2.0 | 7.0 | 0.09 | 0.38 | 0.36 | 90 | 1010.3 |
| 20260509190003 | 48 | 246 | 2.0 | 10.0 | 0.09 | 0.37 | 0.36 | 90 | 1010.6 |
| 20260509185503 | 48 | 236 | 2.0 | 10.0 | 0.09 | 0.37 | 0.35 | 90 | 1010.5 |
| 20260509185003 | 48 | 252 | 2.0 | 6.0 | 0.09 | 0.36 | 0.34 | 90 | 1010.5 |
| 20260509184503 | 48 | 240 | 3.0 | 13.0 | 0.09 | 0.35 | 0.33 | 90 | 1010.7 |
| 20260509184024 | 48 | 225 | 3.0 | 13.0 | 0.09 | 0.34 | 0.33 | 90 | 1010.7 |
| 20260509183503 | 48 | 226 | 3.0 | 10.0 | 0.09 | 0.33 | 0.31 | 90 | 1010.7 |
| 20260509183003 | 48 | 225 | 3.0 | 11.0 | 0.09 | 0.33 | 0.31 | 90 | 1010.8 |
| 20260509182524 | 48 | 213 | 4.0 | 13.0 | 0.10 | 0.32 | 0.30 | 90 | 1010.9 |
| 20260509182003 | 48 | 205 | 3.0 | 13.0 | 0.10 | 0.31 | 0.30 | 90 | 1010.7 |
| 20260509181503 | 49 | 187 | 2.0 | 9.0 | 0.11 | 0.31 | 0.29 | 90 | 1010.8 |
| 20260509181003 | 48 | 185 | 2.0 | 7.0 | 0.11 | 0.30 | 0.28 | 90 | 1010.5 |
| 20260509180524 | 49 | 192 | 3.0 | 9.0 | 0.10 | 0.29 | 0.28 | 90 | 1010.5 |
| 20260509180024 | 49 | 187 | 3.0 | 9.0 | 0.10 | 0.28 | 0.26 | 90 | 1010.6 |
| 20260509175503 | 49 | 185 | 3.0 | 11.0 | 0.09 | 0.27 | 0.26 | 90 | 1010.7 |
| 20260509175003 | 49 | 185 | 4.0 | 11.0 | 0.09 | 0.26 | 0.25 | 90 | 1010.7 |
| 20260509174503 | 49 | 198 | 5.0 | 14.0 | 0.09 | 0.26 | 0.24 | 90 | 1010.7 |
| 20260509174003 | 49 | 197 | 4.0 | 14.0 | 0.09 | 0.25 | 0.24 | 90 | 1010.8 |
| 20260509173503 | 49 | 196 | 3.0 | 13.0 | 0.08 | 0.24 | 0.23 | 90 | 1010.8 |
| 20260509173003 | 49 | 200 | 2.0 | 13.0 | 0.07 | 0.23 | 0.22 | 90 | 1010.7 |
| 20260509172503 | 49 | 183 | 3.0 | 13.0 | 0.07 | 0.22 | 0.20 | 90 | 1010.8 |
| 20260509172003 | 49 | 174 | 3.0 | 13.0 | 0.07 | 0.21 | 0.20 | 90 | 1010.8 |
| 20260509171503 | 49 | 156 | 2.0 | 8.0 | 0.06 | 0.20 | 0.19 | 90 | 1010.9 |
| 20260509171003 | 49 | 178 | 3.0 | 9.0 | 0.06 | 0.19 | 0.18 | 90 | 1010.7 |
| 20260509170504 | 49 | 194 | 4.0 | 11.0 | 0.06 | 0.19 | 0.17 | 90 | 1010.5 |
| 20260509170024 | 49 | 179 | 3.0 | 11.0 | 0.05 | 0.18 | 0.17 | 90 | 1010.7 |
| 20260509165503 | 49 | 168 | 2.0 | 10.0 | 0.05 | 0.18 | 0.16 | 89 | 1010.8 |
| 20260509165003 | 49 | 169 | 2.0 | 10.0 | 0.05 | 0.17 | 0.16 | 89 | 1010.8 |
| 20260509164503 | 49 | 166 | 2.0 | 8.0 | 0.05 | 0.17 | 0.15 | 90 | 1010.8 |
| 20260509164003 | 49 | 172 | 2.0 | 9.0 | 0.04 | 0.17 | 0.15 | 90 | 1010.7 |
| 20260509163503 | 49 | 193 | 2.0 | 9.0 | 0.04 | 0.16 | 0.15 | 90 | 1010.8 |
| 20260509163003 | 49 | 193 | 3.0 | 7.0 | 0.04 | 0.16 | 0.14 | 89 | 1010.7 |
| 20260509162503 | 49 | 181 | 3.0 | 8.0 | 0.03 | 0.15 | 0.14 | 89 | 1010.6 |
| 20260509162003 | 49 | 178 | 3.0 | 10.0 | 0.02 | 0.15 | 0.13 | 89 | 1010.8 |
| 20260509161503 | 49 | 157 | 3.0 | 10.0 | 0.02 | 0.14 | 0.13 | 89 | 1010.9 |
| 20260509161003 | 49 | 159 | 3.0 | 8.0 | 0.02 | 0.13 | 0.12 | 89 | 1010.7 |
| 20260509160503 | 49 | 171 | 3.0 | 9.0 | 0.01 | 0.13 | 0.11 | 89 | 1010.9 |
| 20260509160003 | 49 | 173 | 3.0 | 9.0 | 0.01 | 0.13 | 0.11 | 90 | 1011.0 |
| 20260509155503 | 49 | 169 | 2.0 | 8.0 | 0.01 | 0.13 | 0.11 | 89 | 1010.8 |
| 20260509155003 | 49 | 153 | 2.0 | 8.0 | 0.01 | 0.12 | 0.11 | 89 | 1011.0 |
| 20260509154503 | 49 | 143 | 2.0 | 8.0 | 0.02 | 0.12 | 0.11 | 89 | 1011.0 |
| 20260509154024 | 49 | 142 | 2.0 | 6.0 | 0.02 | 0.12 | 0.11 | 89 | 1010.9 |
| 20260509153524 | 49 | 165 | 2.0 | 7.0 | 0.02 | 0.12 | 0.11 | 89 | 1010.9 |
| 20260509153003 | 48 | 150 | 2.0 | 7.0 | 0.03 | 0.12 | 0.11 | 89 | 1010.7 |
| 20260509152503 | 48 | 129 | 2.0 | 6.0 | 0.03 | 0.12 | 0.11 | 89 | 1010.5 |
| 20260509152003 | 49 | 138 | 2.0 | 4.0 | 0.04 | 0.12 | 0.11 | 89 | 1010.6 |
| 20260509151524 | 49 | 142 | 1.0 | 4.0 | 0.04 | 0.12 | 0.11 | 90 | 1010.6 |
| 20260509151003 | 48 | 137 | 1.0 | 4.0 | 0.04 | 0.12 | 0.10 | 90 | 1010.7 |
| 20260509150503 | 48 | 163 | 1.0 | 8.0 | 0.04 | 0.12 | 0.10 | 89 | 1011.0 |
| 20260509150003 | 48 | 162 | 1.0 | 8.0 | 0.05 | 0.12 | 0.10 | 89 | 1011.1 |
| 20260509145503 | 47 | 147 | 1.0 | 3.0 | 0.05 | 0.12 | 0.10 | 89 | 1011.1 |
| 20260509145003 | 47 | 161 | 1.0 | 6.0 | 0.05 | 0.11 | 0.10 | 89 | 1011.2 |
| 20260509144503 | 47 | 156 | 2.0 | 6.0 | 0.04 | 0.11 | 0.09 | 89 | 1011.2 |
| 20260509144003 | 47 | 149 | 2.0 | 6.0 | 0.05 | 0.11 | 0.09 | 89 | 1011.4 |
| 20260509143524 | 47 | 137 | 2.0 | 6.0 | 0.04 | 0.10 | 0.08 | 89 | 1011.3 |
| 20260509143003 | 47 | 149 | 2.0 | 6.0 | 0.04 | 0.09 | 0.08 | 89 | 1011.4 |
| 20260509142503 | 47 | 153 | 2.0 | 4.0 | 0.04 | 0.09 | 0.07 | 89 | 1011.0 |
| 20260509142003 | 47 | 135 | 2.0 | 4.0 | 0.03 | 0.08 | 0.07 | 89 | 1010.9 |
| 20260509141503 | 47 | 137 | 2.0 | 7.0 | 0.02 | 0.08 | 0.06 | 89 | 1011.0 |
| 20260509141003 | 47 | 138 | 2.0 | 7.0 | 0.02 | 0.07 | 0.06 | 88 | 1010.8 |
| 20260509140524 | 47 | 132 | 2.0 | 4.0 | 0.02 | 0.07 | 0.06 | 88 | 1010.9 |
| 20260509140003 | 47 | 136 | 2.0 | 4.0 | 0.02 | 0.07 | 0.06 | 88 | 1010.8 |
| 20260509135503 | 47 | 140 | 2.0 | 4.0 | 0.02 | 0.07 | 0.05 | 87 | 1010.6 |
| 20260509135003 | 47 | 126 | 2.0 | 4.0 | 0.02 | 0.07 | 0.05 | 88 | 1010.7 |
| 20260509134503 | 47 | 122 | 2.0 | 4.0 | 0.02 | 0.06 | 0.05 | 87 | 1010.8 |
| 20260509134003 | 47 | 128 | 2.0 | 4.0 | 0.01 | 0.06 | 0.04 | 87 | 1010.8 |
| 20260509133503 | 47 | 139 | 2.0 | 4.0 | 0.01 | 0.06 | 0.04 | 87 | 1010.6 |
| 20260509133004 | 47 | 142 | 2.0 | 7.0 | 0.01 | 0.06 | 0.04 | 86 | 1010.8 |
| 20260509132503 | 47 | 137 | 2.0 | 7.0 | 0.01 | 0.06 | 0.04 | 86 | 1010.9 |
| 20260509132003 | 47 | 132 | 1.0 | 4.0 | 0.01 | 0.06 | 0.04 | 86 | 1010.6 |
| 20260509131503 | 47 | 133 | 2.0 | 4.0 | 0.01 | 0.06 | 0.04 | 86 | 1010.8 |
| 20260509131003 | 47 | 136 | 1.0 | 3.0 | 0.01 | 0.06 | 0.04 | 86 | 1010.9 |
| 20260509130524 | 47 | 124 | 1.0 | 6.0 | 0.00 | 0.05 | 0.04 | 85 | 1010.9 |
| 20260509130004 | 47 | 124 | 2.0 | 6.0 | 0.00 | 0.05 | 0.04 | 85 | 1010.9 |
| 20260509125503 | 47 | 137 | 1.0 | 6.0 | 0.00 | 0.05 | 0.04 | 85 | 1011.0 |
| 20260509125003 | 47 | 136 | 2.0 | 4.0 | 0.00 | 0.05 | 0.04 | 85 | 1011.1 |
| 20260509124503 | 47 | 133 | 2.0 | 6.0 | 0.00 | 0.05 | 0.03 | 84 | 1011.1 |
| 20260509124003 | 47 | 138 | 2.0 | 6.0 | 0.00 | 0.05 | 0.03 | 84 | 1011.3 |
| 20260509123524 | 47 | 135 | 2.0 | 4.0 | 0.00 | 0.05 | 0.03 | 84 | 1011.2 |
| 20260509123003 | 47 | 129 | 2.0 | 6.0 | 0.00 | 0.05 | 0.03 | 83 | 1011.3 |
| 20260509122524 | 47 | 121 | 2.0 | 6.0 | 0.00 | 0.05 | 0.03 | 84 | 1011.1 |
| 20260509122003 | 47 | 132 | 2.0 | 6.0 | 0.00 | 0.05 | 0.03 | 85 | 1011.2 |
| 20260509121503 | 47 | 142 | 2.0 | 6.0 | 0.00 | 0.05 | 0.03 | 86 | 1011.2 |
| 20260509121003 | 47 | 140 | 2.0 | 6.0 | 0.00 | 0.05 | 0.03 | 87 | 1011.1 |
| 20260509120503 | 47 | 135 | 2.0 | 4.0 | 0.00 | 0.05 | 0.03 | 87 | 1011.1 |
| 20260509120003 | 47 | 131 | 1.0 | 4.0 | 0.00 | 0.05 | 0.03 | 88 | 1011.1 |
| 20260509115524 | 47 | 142 | 1.0 | 3.0 | 0.00 | 0.05 | 0.03 | 88 | 1011.2 |
| 20260509115003 | 47 | 141 | 1.0 | 3.0 | 0.00 | 0.05 | 0.03 | 88 | 1010.9 |
| 20260509114503 | 46 | 141 | 1.0 | 3.0 | 0.01 | 0.05 | 0.03 | 88 | 1010.8 |
| 20260509114003 | 46 | 138 | 1.0 | 3.0 | 0.01 | 0.05 | 0.03 | 88 | 1010.8 |
| 20260509113503 | 46 | 107 | 1.0 | 4.0 | 0.01 | 0.05 | 0.03 | 88 | 1010.8 |
| 20260509113003 | 46 | 106 | 1.0 | 4.0 | 0.01 | 0.05 | 0.03 | 88 | 1011.0 |
| 20260509112524 | 46 | 133 | 1.0 | 3.0 | 0.01 | 0.05 | 0.03 | 89 | 1011.2 |
| 20260509112003 | 46 | 131 | 1.0 | 3.0 | 0.01 | 0.05 | 0.03 | 89 | 1010.9 |
| 20260509111503 | 46 | 143 | 1.0 | 2.0 | 0.00 | 0.04 | 0.03 | 88 | 1011.0 |
| 20260509111003 | 46 | 148 | 1.0 | 2.0 | 0.00 | 0.04 | 0.03 | 89 | 1010.8 |
| 20260509110503 | 46 | 145 | 1.0 | 3.0 | 0.00 | 0.04 | 0.03 | 89 | 1010.8 |
| 20260509110003 | 46 | 140 | 1.0 | 3.0 | 0.00 | 0.04 | 0.03 | 89 | 1010.9 |
| 20260509105524 | 46 | 134 | 1.0 | 3.0 | 0.00 | 0.04 | 0.03 | 88 | 1010.9 |
| 20260509105003 | 46 | 130 | 1.0 | 4.0 | 0.00 | 0.04 | 0.03 | 89 | 1011.0 |
| 20260509104503 | 46 | 129 | 1.0 | 4.0 | 0.00 | 0.04 | 0.02 | 89 | 1010.9 |
| 20260509104003 | 45 | 119 | 1.0 | 3.0 | 0.00 | 0.04 | 0.02 | 89 | 1010.9 |
| 20260509103503 | 45 | 128 | 2.0 | 4.0 | 0.00 | 0.04 | 0.02 | 89 | 1010.7 |
| 20260509103003 | 45 | 152 | 2.0 | 6.0 | 0.00 | 0.04 | 0.02 | 89 | 1010.8 |
| 20260509102503 | 45 | 109 | 2.0 | 6.0 | 0.00 | 0.04 | 0.02 | 89 | 1010.8 |
| 20260509102003 | 45 | 96 | 1.0 | 3.0 | 0.00 | 0.04 | 0.02 | 89 | 1010.7 |
| 20260509101503 | 45 | 125 | 0.0 | 1.0 | 0.00 | 0.04 | 0.02 | 89 | 1011.0 |
| 20260509101003 | 45 | 165 | 0.0 | 2.0 | 0.00 | 0.04 | 0.02 | 89 | 1011.2 |
| 20260509100503 | 45 | 156 | 0.0 | 2.0 | 0.00 | 0.04 | 0.02 | 89 | 1011.0 |
| 20260509100002 | 45 | 211 | 0.0 | 1.0 | 0.00 | 0.04 | 0.02 | 89 | 1011.0 |
| 20260509095503 | 45 | 144 | 0.0 | 2.0 | 0.00 | 0.04 | 0.02 | 89 | 1011.0 |
| 20260509095003 | 44 | 117 | 0.0 | 2.0 | 0.00 | 0.04 | 0.02 | 89 | 1010.8 |
| 20260509094503 | 44 | 0 | 0.0 | 0.0 | 0.00 | 0.04 | 0.02 | 89 | 1011.1 |
| 20260509094024 | 44 | 0 | 0.0 | 0.0 | 0.00 | 0.04 | 0.02 | 89 | 1011.0 |
| 20260509093503 | 44 | 0 | 0.0 | 0.0 | 0.00 | 0.04 | 0.02 | 89 | 1011.0 |
| 20260509093003 | 45 | 0 | 0.0 | 0.0 | 0.00 | 0.04 | 0.02 | 89 | 1011.0 |
| 20260509092503 | 45 | 145 | 0.0 | 1.0 | 0.00 | 0.04 | 0.02 | 89 | 1011.1 |
| 20260509092003 | 45 | 132 | 0.0 | 2.0 | 0.00 | 0.04 | 0.02 | 89 | 1011.0 |
| 20260509091503 | 45 | 131 | 0.0 | 2.0 | 0.00 | 0.04 | 0.02 | 89 | 1011.0 |
| 20260509091003 | 45 | 168 | 0.0 | 1.0 | 0.00 | 0.04 | 0.02 | 89 | 1011.0 |
| 20260509090524 | 45 | 0 | 0.0 | 0.0 | 0.00 | 0.04 | 0.02 | 89 | 1011.1 |
| 20260509090003 | 45 | 0 | 0.0 | 0.0 | 0.00 | 0.04 | 0.02 | 89 | 1011.2 |
| 20260509085503 | 45 | 0 | 0.0 | 0.0 | 0.00 | 0.04 | 0.02 | 88 | 1011.5 |
| 20260509085024 | 45 | 0 | 0.0 | 0.0 | 0.00 | 0.04 | 0.02 | 88 | 1011.5 |
| 20260509084503 | 45 | 0 | 0.0 | 0.0 | 0.00 | 0.04 | 0.02 | 88 | 1011.5 |
| 20260509084003 | 45 | 0 | 0.0 | 0.0 | 0.00 | 0.04 | 0.02 | 88 | 1011.5 |
| 20260509083503 | 45 | 0 | 0.0 | 0.0 | 0.00 | 0.04 | 0.02 | 88 | 1011.7 |
| 20260509083003 | 45 | 0 | 0.0 | 0.0 | 0.00 | 0.04 | 0.02 | 88 | 1011.5 |
| 20260509082503 | 45 | 0 | 0.0 | 0.0 | 0.00 | 0.04 | 0.02 | 88 | 1011.4 |
| 20260509082003 | 45 | 0 | 0.0 | 0.0 | 0.00 | 0.04 | 0.02 | 88 | 1011.3 |
| 20260509081503 | 44 | 0 | 0.0 | 0.0 | 0.00 | 0.04 | 0.02 | 88 | 1011.7 |
| 20260509081004 | 44 | 0 | 0.0 | 0.0 | 0.00 | 0.04 | 0.02 | 88 | 1011.6 |
| 20260509080503 | 44 | 0 | 0.0 | 0.0 | 0.00 | 0.04 | 0.02 | 88 | 1011.6 |
| 20260509080003 | 44 | 0 | 0.0 | 0.0 | 0.00 | 0.04 | 0.02 | 88 | 1011.6 |
| 20260509075503 | 44 | 0 | 0.0 | 0.0 | 0.00 | 0.04 | 0.02 | 88 | 1011.7 |
| 20260509075003 | 44 | 0 | 0.0 | 0.0 | 0.00 | 0.04 | 0.02 | 88 | 1011.6 |
| 20260509074503 | 45 | 0 | 0.0 | 0.0 | 0.00 | 0.04 | 0.02 | 88 | 1011.9 |
| 20260509074003 | 45 | 114 | 0.0 | 2.0 | 0.00 | 0.04 | 0.02 | 88 | 1011.8 |
| 20260509073503 | 45 | 114 | 0.0 | 2.0 | 0.00 | 0.04 | 0.02 | 88 | 1011.6 |
| 20260509073003 | 45 | 0 | 0.0 | 0.0 | 0.00 | 0.04 | 0.02 | 88 | 1011.5 |
| 20260509072503 | 44 | 0 | 0.0 | 0.0 | 0.00 | 0.04 | 0.02 | 88 | 1011.6 |
| 20260509072003 | 44 | 0 | 0.0 | 0.0 | 0.00 | 0.04 | 0.02 | 88 | 1011.5 |
| 20260509071503 | 44 | 0 | 0.0 | 0.0 | 0.00 | 0.04 | 0.02 | 87 | 1011.4 |
| 20260509071003 | 44 | 0 | 0.0 | 0.0 | 0.00 | 0.04 | 0.02 | 87 | 1011.5 |
| 20260509070503 | 45 | 0 | 0.0 | 0.0 | 0.00 | 0.04 | 0.02 | 87 | 1011.3 |
| 20260509070003 | 45 | 150 | 0.0 | 1.0 | 0.00 | 0.04 | 0.02 | 87 | 1011.4 |
| 20260509065504 | 45 | 150 | 0.0 | 1.0 | 0.00 | 0.04 | 0.02 | 87 | 1011.5 |
| 20260509065003 | 45 | 208 | 0.0 | 1.0 | 0.00 | 0.04 | 0.02 | 87 | 1011.4 |
| 20260509064503 | 45 | 203 | 0.0 | 1.0 | 0.00 | 0.04 | 0.02 | 87 | 1011.3 |
| 20260509064003 | 45 | 337 | 0.0 | 1.0 | 0.00 | 0.04 | 0.02 | 87 | 1011.2 |
| 20260509063524 | 45 | 350 | 0.0 | 1.0 | 0.00 | 0.04 | 0.02 | 87 | 1011.3 |
| 20260509063003 | 45 | 0 | 0.0 | 0.0 | 0.00 | 0.04 | 0.02 | 87 | 1011.6 |
| 20260509062503 | 45 | 336 | 0.0 | 1.0 | 0.01 | 0.04 | 0.02 | 87 | 1011.7 |
| 20260509062024 | 45 | 341 | 1.0 | 2.0 | 0.01 | 0.04 | 0.02 | 86 | 1011.6 |
| 20260509061504 | 45 | 345 | 1.0 | 2.0 | 0.01 | 0.04 | 0.02 | 86 | 1011.9 |
| 20260509061003 | 46 | 352 | 0.0 | 2.0 | 0.00 | 0.04 | 0.02 | 86 | 1012.1 |
| 20260509060503 | 46 | 79 | 0.0 | 1.0 | 0.01 | 0.04 | 0.02 | 86 | 1012.0 |
| 20260509060003 | 46 | 100 | 1.0 | 4.0 | 0.01 | 0.05 | 0.02 | 86 | 1011.9 |
| 20260509055503 | 46 | 112 | 1.0 | 4.0 | 0.01 | 0.05 | 0.02 | 87 | 1012.0 |
| 20260509055003 | 45 | 129 | 1.0 | 3.0 | 0.01 | 0.05 | 0.02 | 87 | 1012.4 |
| 20260509054503 | 45 | 121 | 1.0 | 3.0 | 0.01 | 0.05 | 0.02 | 87 | 1012.3 |
| 20260509054003 | 45 | 127 | 1.0 | 2.0 | 0.01 | 0.06 | 0.02 | 87 | 1012.2 |
| 20260509053503 | 45 | 128 | 1.0 | 2.0 | 0.01 | 0.06 | 0.02 | 87 | 1012.5 |
| 20260509053003 | 45 | 125 | 1.0 | 6.0 | 0.01 | 0.06 | 0.02 | 87 | 1012.3 |
| 20260509052503 | 45 | 125 | 2.0 | 6.0 | 0.00 | 0.06 | 0.01 | 87 | 1012.4 |
| 20260509052003 | 45 | 119 | 2.0 | 6.0 | 0.00 | 0.06 | 0.01 | 88 | 1012.4 |
| 20260509051524 | 45 | 133 | 2.0 | 6.0 | 0.00 | 0.06 | 0.01 | 88 | 1012.5 |
| 20260509051003 | 45 | 151 | 1.0 | 4.0 | 0.00 | 0.06 | 0.01 | 88 | 1012.6 |
| 20260509050524 | 45 | 142 | 1.0 | 3.0 | 0.00 | 0.05 | 0.01 | 88 | 1011.9 |
| 20260509050003 | 45 | 0 | 0.0 | 0.0 | 0.01 | 0.05 | 0.01 | 86 | 1012.0 |
| 20260509045524 | 45 | 148 | 0.0 | 1.0 | 0.01 | 0.05 | 0.01 | 86 | 1011.8 |
| 20260509045003 | 45 | 142 | 0.0 | 1.0 | 0.01 | 0.05 | 0.01 | 86 | 1011.7 |
| 20260509044503 | 45 | 0 | 0.0 | 0.0 | 0.01 | 0.05 | 0.01 | 86 | 1011.9 |
| 20260509044003 | 45 | 0 | 0.0 | 0.0 | 0.01 | 0.05 | 0.01 | 85 | 1011.9 |
| 20260509043503 | 45 | 0 | 0.0 | 0.0 | 0.01 | 0.06 | 0.01 | 85 | 1011.8 |
| 20260509043003 | 45 | 0 | 0.0 | 0.0 | 0.01 | 0.06 | 0.01 | 85 | 1011.9 |
| 20260509042503 | 45 | 41 | 0.0 | 1.0 | 0.01 | 0.07 | 0.01 | 85 | 1011.8 |
| 20260509042004 | 45 | 42 | 0.0 | 1.0 | 0.01 | 0.07 | 0.01 | 85 | 1011.8 |
| 20260509041503 | 45 | 45 | 0.0 | 1.0 | 0.01 | 0.07 | 0.01 | 85 | 1011.7 |
| 20260509041003 | 45 | 46 | 0.0 | 1.0 | 0.01 | 0.08 | 0.01 | 85 | 1011.8 |
| 20260509040503 | 45 | 46 | 0.0 | 1.0 | 0.01 | 0.08 | 0.00 | 85 | 1011.9 |
| 20260509040004 | 45 | 81 | 0.0 | 2.0 | 0.00 | 0.07 | 0.00 | 85 | 1012.2 |
| 20260509035503 | 44 | 81 | 0.0 | 2.0 | 0.00 | 0.07 | 0.07 | 85 | 1012.1 |
| 20260509035003 | 44 | 123 | 0.0 | 1.0 | 0.00 | 0.07 | 0.07 | 85 | 1012.1 |
| 20260509034503 | 44 | 123 | 0.0 | 1.0 | 0.00 | 0.07 | 0.07 | 85 | 1012.2 |
| 20260509034003 | 44 | 103 | 0.0 | 1.0 | 0.00 | 0.07 | 0.07 | 85 | 1012.5 |